• In Moldova, Republic
  • List of Countries
  • For 7 days
  • Water Temperature
  • Satellite Maps
  • Weather Map
  • Weather Widgets
  • user-avatar
    Login

    Hourly Weather Sumgayit

    Today, 25 May, Friday

    Time Temperature Precipitation Wind Pressure Humidity
    00:00 +24°C° 0 mm 1 mps 736 mmHg 47%
    01:00 +23°C° 0 mm 1 mps 736 mmHg 47%
    02:00 +23°C° 0 mm 1 mps 736 mmHg 47%
    03:00 +22°C° 0 mm 1 mps 736 mmHg 44%
    04:00 +23°C° 0 mm 1 mps 736 mmHg 43%
    05:00 +24°C° 0 mm 1 mps 736 mmHg 41%
    06:00 +23°C° 0 mm 0 mps 736 mmHg 40%
    07:00 +26°C° 0 mm 1 mps 736 mmHg 36%
    08:00 +27°C° 0 mm 1 mps 736 mmHg 33%
    09:00 +29°C° 0 mm 1 mps 736 mmHg 29%
    10:00 +30°C° 0 mm 2 mps 736 mmHg 27%
    11:00 +31°C° 0 mm 2 mps 736 mmHg 26%
    12:00 +31°C° 0 mm 3 mps 736 mmHg 25%
    13:00 +33°C° 0 mm 3 mps 735 mmHg 25%
    14:00 +33°C° 0 mm 4 mps 735 mmHg 25%
    15:00 +31°C° 0 mm 3 mps 735 mmHg 26%
    16:00 +31°C° 0 mm 3 mps 735 mmHg 27%
    17:00 +30°C° 0 mm 3 mps 735 mmHg 28%
    18:00 +30°C° 0 mm 3 mps 734 mmHg 29%
    19:00 +29°C° 0 mm 2 mps 735 mmHg 31%
    20:00 +28°C° 0 mm 2 mps 735 mmHg 33%
    21:00 +27°C° 0 mm 1 mps 735 mmHg 35%
    22:00 +26°C° 0 mm 1 mps 735 mmHg 36%
    23:00 +26°C° 0 mm 1 mps 734 mmHg 37%

    Tomorrow, 26 May, Saturday

    Time Temperature Precipitation Wind Pressure Humidity
    00:00 +25°C° 0 mm 2 mps 734 mmHg 38%
    01:00 +25°C° 0 mm 2 mps 734 mmHg 40%
    02:00 +24°C° 0 mm 2 mps 734 mmHg 42%
    03:00 +24°C° 0 mm 2 mps 734 mmHg 44%
    04:00 +24°C° 0 mm 2 mps 734 mmHg 43%
    05:00 +25°C° 0 mm 2 mps 734 mmHg 42%
    06:00 +25°C° 0 mm 2 mps 735 mmHg 41%
    07:00 +26°C° 0 mm 3 mps 735 mmHg 41%
    08:00 +28°C° 0 mm 3 mps 735 mmHg 41%
    09:00 +29°C° 0 mm 3 mps 735 mmHg 40%
    10:00 +29°C° 0 mm 3 mps 735 mmHg 40%
    11:00 +30°C° 0 mm 4 mps 736 mmHg 39%
    12:00 +32°C° 0 mm 4 mps 736 mmHg 38%
    13:00 +32°C° 0.1 mm 5 mps 736 mmHg 39%
    14:00 +32°C° 0.1 mm 5 mps 736 mmHg 39%
    15:00 +32°C° 0.1 mm 6 mps 736 mmHg 40%
    16:00 +31°C° 0 mm 8 mps 736 mmHg 45%
    17:00 +29°C° 0 mm 9 mps 736 mmHg 50%
    18:00 +28°C° 0 mm 10 mps 736 mmHg 55%
    19:00 +26°C° 0 mm 11 mps 737 mmHg 58%
    20:00 +24°C° 0 mm 13 mps 738 mmHg 62%
    21:00 +22°C° 0 mm 14 mps 738 mmHg 66%
    22:00 +22°C° 0.2 mm 14 mps 739 mmHg 66%
    23:00 +20°C° 0.2 mm 14 mps 740 mmHg 65%

    Day after tomorrow, 27 May, Sunday

    Time Temperature Precipitation Wind Pressure Humidity
    00:00 +20°C° 0.2 mm 14 mps 740 mmHg 65%
    01:00 +19°C° 0.2 mm 14 mps 741 mmHg 64%
    02:00 +19°C° 0.2 mm 14 mps 741 mmHg 62%
    03:00 +18°C° 0.2 mm 14 mps 741 mmHg 60%
    04:00 +18°C° 0.1 mm 14 mps 742 mmHg 59%
    05:00 +18°C° 0.1 mm 14 mps 743 mmHg 58%
    06:00 +18°C° 0.1 mm 14 mps 743 mmHg 56%
    07:00 +18°C° 0.4 mm 13 mps 744 mmHg 57%
    08:00 +18°C° 0.4 mm 13 mps 745 mmHg 58%
    09:00 +18°C° 0.4 mm 13 mps 746 mmHg 59%
    10:00 +18°C° 0.1 mm 12 mps 746 mmHg 59%
    11:00 +18°C° 0.1 mm 11 mps 746 mmHg 59%
    12:00 +18°C° 0.1 mm 10 mps 747 mmHg 59%
    13:00 +18°C° 0 mm 10 mps 747 mmHg 58%
    14:00 +18°C° 0 mm 9 mps 747 mmHg 57%
    15:00 +18°C° 0 mm 9 mps 747 mmHg 55%
    16:00 +18°C° 0 mm 8 mps 747 mmHg 55%
    17:00 +18°C° 0 mm 7 mps 747 mmHg 54%
    18:00 +17°C° 0 mm 6 mps 747 mmHg 54%
    19:00 +17°C° 0 mm 5 mps 747 mmHg 53%
    20:00 +18°C° 0 mm 4 mps 747 mmHg 53%
    21:00 +18°C° 0 mm 3 mps 747 mmHg 52%
    22:00 +17°C° 0 mm 2 mps 747 mmHg 52%
    23:00 +17°C° 0 mm 2 mps 746 mmHg 53%

    28 May, Monday

    Time Temperature Precipitation Wind Pressure Humidity
    00:00 +18°C° 0 mm 1 mps 746 mmHg 53%
    01:00 +18°C° 0 mm 1 mps 746 mmHg 54%
    02:00 +17°C° 0 mm 2 mps 745 mmHg 55%
    03:00 +16°C° 0 mm 2 mps 745 mmHg 55%
    04:00 +17°C° 0 mm 2 mps 745 mmHg 54%
    05:00 +17°C° 0 mm 3 mps 744 mmHg 53%
    06:00 +18°C° 0 mm 3 mps 744 mmHg 51%
    07:00 +19°C° 0 mm 4 mps 744 mmHg 48%
    08:00 +20°C° 0 mm 5 mps 744 mmHg 45%
    09:00 +22°C° 0 mm 6 mps 744 mmHg 42%
    10:00 +23°C° 0 mm 5 mps 743 mmHg 40%
    11:00 +25°C° 0 mm 5 mps 743 mmHg 38%
    12:00 +26°C° 0 mm 5 mps 742 mmHg 36%
    13:00 +27°C° 0 mm 5 mps 742 mmHg 37%
    14:00 +27°C° 0 mm 5 mps 741 mmHg 37%
    15:00 +27°C° 0 mm 5 mps 741 mmHg 38%
    16:00 +26°C° 0 mm 5 mps 741 mmHg 41%
    17:00 +26°C° 0 mm 5 mps 741 mmHg 45%
    18:00 +25°C° 0 mm 4 mps 741 mmHg 48%
    19:00 +24°C° 0 mm 3 mps 741 mmHg 51%
    20:00 +23°C° 0 mm 2 mps 741 mmHg 53%
    21:00 +23°C° 0 mm 1 mps 741 mmHg 55%
    22:00 +22°C° 0 mm 1 mps 741 mmHg 56%
    23:00 +21°C° 0 mm 2 mps 741 mmHg 57%

    29 May, Tuesday

    Time Temperature Precipitation Wind Pressure Humidity
    00:00 +21°C° 0 mm 2 mps 741 mmHg 58%
    01:00 +21°C° 0 mm 3 mps 741 mmHg 60%
    02:00 +20°C° 0 mm 4 mps 741 mmHg 62%
    03:00 +20°C° 0 mm 5 mps 741 mmHg 63%
    04:00 +20°C° 0 mm 6 mps 741 mmHg 62%
    05:00 +20°C° 0 mm 6 mps 741 mmHg 61%
    06:00 +21°C° 0 mm 7 mps 742 mmHg 59%
    07:00 +22°C° 0 mm 7 mps 742 mmHg 56%
    08:00 +23°C° 0 mm 7 mps 742 mmHg 53%
    09:00 +24°C° 0 mm 7 mps 742 mmHg 49%
    10:00 +24°C° 0 mm 7 mps 742 mmHg 48%
    11:00 +26°C° 0 mm 8 mps 742 mmHg 47%
    12:00 +26°C° 0 mm 8 mps 742 mmHg 46%
    13:00 +26°C° 0 mm 8 mps 742 mmHg 48%
    14:00 +26°C° 0 mm 8 mps 742 mmHg 49%
    15:00 +24°C° 0 mm 8 mps 742 mmHg 50%
    16:00 +24°C° 0 mm 8 mps 742 mmHg 51%
    17:00 +23°C° 0 mm 8 mps 742 mmHg 53%
    18:00 +22°C° 0 mm 8 mps 742 mmHg 55%
    19:00 +22°C° 0 mm 8 mps 743 mmHg 56%
    20:00 +21°C° 0 mm 8 mps 743 mmHg 58%
    21:00 +21°C° 0 mm 7 mps 744 mmHg 60%
    22:00 +20°C° 0 mm 7 mps 744 mmHg 62%
    23:00 +20°C° 0 mm 8 mps 744 mmHg 64%

    30 May, Wednesday

    Time Temperature Precipitation Wind Pressure Humidity
    00:00 +20°C° 0 mm 8 mps 743 mmHg 66%
    01:00 +18°C° 0 mm 7 mps 743 mmHg 65%
    02:00 +18°C° 0 mm 7 mps 743 mmHg 64%
    03:00 +19°C° 0 mm 6 mps 743 mmHg 64%
    04:00 +19°C° 0 mm 6 mps 743 mmHg 62%
    05:00 +19°C° 0 mm 6 mps 744 mmHg 61%
    06:00 +19°C° 0 mm 6 mps 744 mmHg 60%
    07:00 +19°C° 0 mm 5 mps 744 mmHg 57%
    08:00 +20°C° 0 mm 5 mps 744 mmHg 54%
    09:00 +20°C° 0 mm 5 mps 744 mmHg 52%
    10:00 +21°C° 0 mm 4 mps 744 mmHg 49%
    11:00 +22°C° 0 mm 4 mps 743 mmHg 47%
    12:00 +22°C° 0 mm 4 mps 743 mmHg 45%
    13:00 +23°C° 0 mm 4 mps 743 mmHg 43%
    14:00 +23°C° 0 mm 4 mps 743 mmHg 42%
    15:00 +23°C° 0 mm 4 mps 742 mmHg 40%
    16:00 +23°C° 0 mm 4 mps 742 mmHg 41%
    17:00 +22°C° 0 mm 4 mps 742 mmHg 42%
    18:00 +22°C° 0 mm 4 mps 742 mmHg 42%
    19:00 +21°C° 0 mm 4 mps 742 mmHg 44%
    20:00 +21°C° 0 mm 3 mps 742 mmHg 45%
    21:00 +20°C° 0 mm 2 mps 742 mmHg 47%
    22:00 +20°C° 0 mm 2 mps 741 mmHg 48%
    23:00 +20°C° 0 mm 2 mps 741 mmHg 50%
    Show more